TimeEDT,TemperatureF,Dew PointF,Humidity,Sea Level PressureIn,VisibilityMPH,Wind Direction,Wind SpeedMPH,Gust SpeedMPH,PrecipitationIn,Events,Conditions,WindDirDegrees,DateUTC
12:51 AM,48.9,42.1,77,30.23,10.0,Calm,Calm,-,N/A,,Overcast,0,2013-05-18 04:51:00
1:51 AM,46.9,42.1,83,30.23,10.0,Calm,Calm,-,N/A,,Overcast,0,2013-05-18 05:51:00
2:51 AM,44.1,41.0,89,30.23,10.0,Calm,Calm,-,N/A,,Scattered Clouds,0,2013-05-18 06:51:00
3:51 AM,41.0,39.9,96,30.25,10.0,Calm,Calm,-,N/A,,Clear,0,2013-05-18 07:51:00
4:51 AM,37.9,37.0,97,30.26,10.0,Calm,Calm,-,N/A,,Clear,0,2013-05-18 08:51:00
5:51 AM,39.0,37.9,96,30.28,10.0,Calm,Calm,-,N/A,,Clear,0,2013-05-18 09:51:00
6:51 AM,46.0,42.1,86,30.30,10.0,Calm,Calm,-,N/A,,Clear,0,2013-05-18 10:51:00
7:51 AM,50.0,42.1,74,30.31,10.0,West,3.5,-,N/A,,Clear,280,2013-05-18 11:51:00
8:51 AM,57.0,43.0,59,30.32,10.0,Calm,Calm,-,N/A,,Clear,0,2013-05-18 12:51:00
9:51 AM,62.1,39.0,43,30.31,10.0,Calm,Calm,-,N/A,,Clear,0,2013-05-18 13:51:00
10:51 AM,66.0,37.0,34,30.30,10.0,Variable,3.5,-,N/A,,Clear,0,2013-05-18 14:51:00
11:51 AM,70.0,32.0,25,30.29,10.0,WNW,5.8,-,N/A,,Clear,290,2013-05-18 15:51:00
12:51 PM,71.1,32.0,24,30.27,10.0,Variable,4.6,16.1,N/A,,Mostly Cloudy,0,2013-05-18 16:51:00
1:51 PM,68.0,30.9,25,30.25,10.0,SSE,4.6,-,N/A,,Scattered Clouds,150,2013-05-18 17:51:00
2:51 PM,71.1,28.9,21,30.23,10.0,West,6.9,-,N/A,,Overcast,260,2013-05-18 18:51:00
3:51 PM,68.0,42.1,39,30.23,10.0,ESE,11.5,-,N/A,,Overcast,120,2013-05-18 19:51:00
4:51 PM,64.9,43.0,45,30.23,10.0,ESE,9.2,16.1,N/A,,Clear,110,2013-05-18 20:51:00
5:51 PM,66.0,43.0,43,30.24,10.0,SE,10.4,-,N/A,,Partly Cloudy,130,2013-05-18 21:51:00
6:51 PM,62.1,43.0,50,30.25,10.0,East,6.9,-,N/A,,Scattered Clouds,100,2013-05-18 22:51:00
7:51 PM,57.9,44.1,60,30.27,10.0,Variable,4.6,-,N/A,,Partly Cloudy,0,2013-05-18 23:51:00
8:51 PM,55.0,45.0,69,30.27,10.0,East,3.5,-,N/A,,Mostly Cloudy,90,2013-05-19 00:51:00
9:51 PM,52.0,46.0,80,30.29,10.0,East,3.5,-,N/A,,Scattered Clouds,90,2013-05-19 01:51:00
10:51 PM,48.9,46.0,90,30.30,10.0,Calm,Calm,-,N/A,,Clear,0,2013-05-19 02:51:00
11:25 PM,48.2,46.4,93,30.30,10.0,NNE,3.5,-,N/A,,Mostly Cloudy,30,2013-05-19 03:25:00
11:51 PM,48.9,46.0,90,30.30,10.0,Calm,Calm,-,N/A,,Mostly Cloudy,0,2013-05-19 03:51:00